Regional Weather Roundup
Issued by NWS

Home | Current Version | Previous Version | Text Only | Print | Product List | Glossary Off
Versions: 1 2 3 4 5 6 7 8 9 10 11 12 13 14 15 16 17 18 19 20 21 22 23 24 25 26 27 28 29 30 31 32 33 34 35 36 37 38 39 40 41 42 43 44 45 46 47 48 49 50

995
ASUS45 KBOU 240507
RWRCO

WEATHER ROUNDUP FOR COLORADO
NATIONAL WEATHER SERVICE DENVER/BOULDER CO
1100 PM MDT FRI JUN 23 2017

NOTE: "FAIR" INDICATES FEW OR NO CLOUDS BELOW 12000 FEET WITH NO
SIGNIFICANT WEATHER AND/OR OBSTRUCTIONS TO VISIBILITY.

COZ001>005-013-030-031-240600-
...NORTHWEST COLORADO...

CITY           SKY/WX    TMP DP  RH WIND       PRES   REMARKS
CRAIG          FAIR      56  36  47 CALM      30.23R
HAYDEN         FAIR      57  32  38 N6        30.25S
MEEKER         FAIR      57  36  45 SE3       30.24R
RABBIT EARS PA FAIR      50  27  40 NW6       30.53S
STEAMBOAT SPGS FAIR      55  35  46 CALM      30.28S
WALDEN         NOT AVBL
$$

COZ006>008-011-240600-
...WEST CENTRAL VALLEYS...

CITY           SKY/WX    TMP DP  RH WIND       PRES   REMARKS
GRAND JUNCTION FAIR      78  15   9 CALM      30.06R
MONTROSE       FAIR      66  31  27 SE9       30.16R
EAGLE          FAIR      61  30  31 E9        30.27R
RIFLE          FAIR      65  26  23 SE6       30.16R
DELTA          FAIR      73  19  13 NE8       30.10R
NUCLA          FAIR      70  19  14 E12       30.19S
$$

COZ017>023-064>068-240600-
...SOUTHWEST COLORADO...

CITY           SKY/WX    TMP DP  RH WIND       PRES   REMARKS
DURANGO        FAIR      70  11  10 CALM      30.20R
CORTEZ         FAIR      62  32  32 NE8       30.15R
PAGOSA SPRINGS FAIR      70   6   8 N5        30.29R
TELLURIDE      FAIR      60  22  23 SE7       30.45R
WOLF CREEK PAS FAIR      52  12  20 W6        30.69R
$$

COZ009-010-012-014-032>034-037-058>063-240600-
...CENTRAL COLORADO...

CITY           SKY/WX    TMP DP  RH WIND       PRES   REMARKS
ASPEN          FAIR      52  31  44 SW9       30.32R
BUENA VISTA    FAIR      49  44  84 SE9       30.43R
COPPER MTN     FAIR      50  18  27 W12       30.62F
BERTHOUD PASS  FAIR      37  27  65 NW17      30.65R
COTTONWOOD PAS MIX PCPN  46  43  87 CALM      30.51R VSB 1/4
GUNNISON       FAIR      57  33  40 N3        30.31R
KREMMLING      NOT AVBL
LEADVILLE      FAIR      47  22  37 N5        30.47R
MONARCH PASS   FAIR      52  19  28 N8        30.73R
SALIDA         FAIR      52  47  81 SE12G17   30.48R
SUNLIGHT       FAIR      52  18  25 CALM      30.57S
WILKERSON PASS FAIR      39  30  70 E12       30.61R
$$

COZ069>075-240600-
...SAN LUIS VALLEY/SANGRE DE CRISTO MOUNTAINS...

CITY           SKY/WX    TMP DP  RH WIND       PRES   REMARKS
ALAMOSA        FAIR      54  44  69 SE10      30.29R
DEL NORTE      FAIR      67  22  18 SW10G16   30.32R
LA VETA PASS   SNOW      43  41  93 NE18G24   30.62S VSB<1/4
SAGUACHE       FAIR      57  19  23 N6        30.31R
$$

COZ035-036-038>040-240600-
...NORTHERN COLORADO FRONT RANGE...

CITY           SKY/WX    TMP DP  RH WIND       PRES   REMARKS
DENVER INTL AP MOCLDY    54  46  74 SW5       30.34R
DMNS CITY PARK   N/A     52  47  82 E9        30.34S
AURORA         MOCLDY    53  48  84 SE3       30.36R
FRONT RANGE AP MOCLDY    54  46  76 SW5       30.35S
ERIE MUNI ARPT CLOUDY    55  50  81 SW3       30.33R
BOULDER MUN AP CLOUDY    55  48  76 CALM      30.34R
CENTENNIAL     FAIR      50  46  86 CALM      30.36R
BROOMFIELD     MOCLDY    52  48  87 SW3       30.36R
FORT COLLINS   FAIR      56  47  71 SE6       30.33R
LONGMONT       CLOUDY    59  49  70 CALM      30.35R
$$

COZ041-046-047-076>085-087-088-240600-
...PIKES PEAK/PALMER DIVIDE AND SOUTHERN FOOTHILLS...

CITY           SKY/WX    TMP DP  RH WIND       PRES   REMARKS
COLO. SPRINGS  CLOUDY    56  48  74 CALM      30.39R
A. F. ACADEMY  CLOUDY    53  47  80 CALM      30.38R
SCHRIEVER AFB  CLOUDY    55  46  71 S3        30.39R
CHEYENNE MTN   CLOUDY    51  46  85 S3        30.36R
ELLICOTT       CLOUDY     1   1 100 W5        30.37R WCI  -9
FALCON           N/A     53  46  76 SW5       30.42R
FORT CARSON    CLOUDY    56  48  74 CALM      30.36R
LIMON          FAIR      47  41  80 CALM      30.34R
MONUMENT HILL  MOCLDY    45  43  93 S3        30.42R
CANON CITY     CLOUDY    57  54  88 CALM      30.35S
WALSENBURG     CLOUDY    57  50  77 N6        30.38R
TRINIDAD       CLOUDY    60  45  57 NE9       30.35R
$$

COZ042>045-048>051-090-091-240600-
...NORTHEAST COLORADO...

CITY           SKY/WX    TMP DP  RH WIND       PRES   REMARKS
GREELEY ARPT   FAIR      58  48  69 W3        30.32R
AKRON          MOCLDY    56  44  64 W3        30.30R
BURLINGTON     FAIR      54  50  86 W6        30.28R
WRAY           FAIR      55  48  76 N8        30.26R
YUMA           FAIR      55  46  71 W6        30.28R
STERLING       FAIR      59  46  63 NE5       30.27R
HOLYOKE        NOT AVBL
FORT MORGAN    CLOUDY    57  50  77 W5        30.30S
$$

COZ086-089-092>099-240600-
...SOUTHEAST COLORADO...

CITY           SKY/WX    TMP DP  RH WIND       PRES   REMARKS
PUEBLO         CLOUDY    62  51  67 CALM      30.31R
LA JUNTA       CLOUDY    66  46  48 E3        30.29R
LAMAR          CLOUDY    67  46  47 E6        30.25R
SPRINGFIELD      N/A     59  49  69 E6        30.29R
$$




USA.gov is the U.S. government's official web portal to all federal, state and local government web resources and services.